Probability
0 0 0 0 0 0 0 0 0 0 0 0 0 0 0 0 0 0 0 0 0 0 0 0 0 0 0 0 0 0 0 0 0 0 0 0 0 0 0 0 0 0 0
0 0 0 0 0 0 0 0 0 0 0 0 0 0 0 0 0 3 3 0 0 0 0 0 0 0 0 0 0 0 0 0 0 0 0 0 0 0 0 0 0 0 0
0 0 0 0 0 0 0 0 0 0 0 0 0 0 0 0 0 3 0 0 0 0 0 0 0 0 0 0 0 0 0 0 0 0 0 0 0 0 0 0 0 0 0
0 0 0 0 0 0 0 0 0 0 0 0 0 0 3 3 3 3 0 0 0 0 0 0 0 0 0 0 0 0 0 0 0 0 0 0 0 0 0 0 0 0 0
0 0 0 0 0 0 0 0 0 0 0 0 3 0 3 3 0 0 0 0 0 0 0 0 0 0 0 0 0 0 0 0 0 0 0 0 0 0 0 0 0 0 0
0 0 0 0 0 3 3 0 3 3 0 0 0 3 3 3 0 0 0 0 0 0 0 0 0 0 0 0 0 0 0 0 0 0 0 0 0 0 0 0 0 0 0
0 0 0 0 3 3 6 6 0 0 0 0 0 3 0 0 0 0 0 0 0 0 0 0 0 0 0 0 0 0 0 0 0 0 0 0 0 0 0 0 0 0 0
0 0 6 10 3 3 6 6 3 0 0 0 0 0 0 0 0 0 0 0 0 0 0 0 0 0 0 0 0 0 0 0 0 0 0 0 0 0 0 0 0 0 0
0 3 3 3 3 3 6 3 3 0 0 0 0 0 0 0 0 0 0 0 0 0 0 0 0 0 0 0 0 0 0 0 0 0 0 0 0 0 0 0 0 0 0
0 0 0 0 0 3 3 3 0 0 0 0 0 0 0 0 0 0 0 0 0 0 0 0 0 0 0 0 0 0 0 0 0 0 0 0 0 0 0 0 0 0 0
3 0 0 0 3 6 3 3 0 0 0 0 0 0 0 0 0 0 0 0 0 0 0 0 0 0 0 0 0 0 0 0 0 0 0 0 0 0 0 0 0 0 0
3 0 0 0 3 6 3 3 0 0 0 0 0 0 0 0 0 0 0 0 0 0 0 0 0 0 0 0 0 0 0 0 0 0 0 0 0 0 0 0 0 0 0
3 0 0 0 0 0 3 3 0 0 0 0 0 0 0 0 0 0 0 0 0 0 0 0 0 0 0 0 0 0 0 0 0 0 0 0 0 0 0 0 0 0 0
3 3 3 0 0 0 0 0 0 0 0 0 0 0 0 0 0 0 0 0 0 0 0 0 0 0 0 0 0 0 0 0 0 0 0 0 0 0 0 0 0 0 0
3 3 3 3 0 0 0 0 0 0 0 0 0 0 0 0 0 0 0 0 0 0 0 0 0 0 0 0 0 0 0 0 0 0 0 0 0 0 0 0 0 0 0
3 3 3 3 0 0 0 0 0 0 0 0 0 0 0 0 0 0 0 0 0 0 0 0 0 0 0 0 0 0 0 0 0 0 0 0 0 0 0 0 0 0 0
3 3 3 3 3 0 0 0 0 0 0 0 0 0 0 0 0 0 0 0 0 0 0 0 0 0 0 0 0 0 0 0 0 0 0 0 0 0 0 0 0 0 0
3 3 3 3 3 0 0 0 0 0 0 0 0 0 0 0 0 0 0 0 0 0 0 0 0 0 0 0 0 0 0 0 0 0 0 0 0 0 0 0 0 0 0
3 3 0 0 0 0 0 0 0 0 0 0 0 0 0 0 0 0 0 0 0 0 0 0 0 0 0 0 0 0 0 0 0 0 0 0 0 0 0 0 0 0 0
3 0 0 0 0 0 0 0 0 0 0 0 0 0 0 0 0 0 0 0 0 0 0 0 0 0 0 0 0 0 0 0 0 0 0 0 0 0 0 0 0 0 0
0 0 0 0 0 0 0 0 0 0 0 0 0 0 0 0 0 0 0 0 0 0 0 0 0 0 0 0 0 0 0 0 0 0 0 0 0 0 0 0 0 0 0
0 0 0 0 0 0 0 0 0 0 0 0 0 0 0 0 0 0 0 0 0 0 0 0 0 0 0 0 0 0 0 0 0 0 0 0 0 0 0 0 0 0 0
0 0 0 0 0 0 0 0 0 0 0 3 3 0 0 0 0 0 0 0 0 0 0 0 0 0 0 0 0 0 0 0 0 0 0 0 0 0 0 0 0 0 0
0 0 0 0 0 0 0 0 0 0 0 0 0 0 0 0 0 0 0 0 0 0 0 0 0 0 0 0 0 0 0 0 0 0 0 0 0 0 0 0 0 0 0
0 0 0 0 0 0 0 0 0 0 0 0 0 0 0 0 0 0 0 0 0 0 0 0 0 0 0 0 0 0 0 0 0 0 0 0 0 0 0 0 0 0 0
0 0 0 0 0 0 0 0 0 0 0 0 0 0 0 0 0 0 0 0 0 0 0 0 0 0 0 0 0 0 0 0 0 0 0 0 0 0 0 0 0 0 0
Height
5886 5887 5888 5889 5890 5891 5891 5892 5892 5892 5892 5891 5891 5890 5889 5888 5887 5885 5884 5882 5880 5878 5876 5874 5871 5869 5866 5864 5861 5859 5857 5856 5855 5854 5854 5854 5854 5854 5855 5856 5857 5858 5860
5885 5886 5888 5889 5890 5890 5891 5892 5892 5892 5892 5892 5891 5891 5890 5889 5888 5887 5885 5884 5882 5880 5878 5876 5873 5871 5869 5866 5864 5862 5860 5858 5857 5856 5856 5855 5856 5856 5856 5857 5858 5859 5860
5884 5885 5887 5888 5889 5890 5891 5892 5892 5892 5892 5892 5892 5891 5891 5890 5889 5888 5887 5885 5884 5882 5880 5877 5875 5873 5871 5869 5866 5864 5862 5861 5859 5858 5858 5857 5857 5857 5858 5858 5859 5860 5861
5883 5884 5886 5887 5888 5889 5890 5891 5892 5892 5892 5892 5892 5892 5892 5891 5890 5889 5888 5887 5885 5883 5882 5880 5877 5875 5873 5871 5868 5866 5864 5862 5861 5860 5859 5859 5859 5859 5860 5860 5860 5861 5861
5882 5883 5885 5886 5887 5889 5890 5891 5891 5892 5892 5892 5892 5892 5892 5892 5891 5890 5889 5888 5886 5885 5883 5881 5879 5877 5875 5873 5870 5868 5866 5864 5862 5861 5861 5861 5861 5861 5861 5861 5862 5862 5862
5881 5882 5884 5885 5887 5888 5889 5890 5891 5892 5892 5892 5892 5892 5892 5892 5891 5891 5890 5889 5888 5886 5885 5883 5881 5879 5877 5875 5872 5870 5867 5866 5864 5863 5863 5862 5862 5862 5863 5863 5863 5863 5863
5879 5881 5883 5884 5885 5887 5888 5889 5890 5891 5892 5892 5892 5893 5892 5892 5892 5891 5890 5890 5888 5887 5886 5884 5882 5880 5878 5876 5874 5872 5869 5868 5866 5865 5864 5864 5864 5864 5864 5864 5864 5864 5864
5877 5879 5881 5883 5884 5886 5887 5888 5889 5890 5891 5892 5892 5892 5893 5892 5892 5891 5891 5890 5889 5888 5886 5885 5883 5881 5880 5877 5875 5873 5871 5869 5868 5867 5866 5866 5866 5865 5865 5865 5865 5865 5865
5875 5877 5879 5881 5883 5884 5886 5887 5889 5889 5890 5891 5892 5892 5892 5892 5892 5891 5891 5890 5889 5888 5887 5885 5884 5882 5881 5879 5877 5875 5873 5871 5870 5869 5868 5867 5867 5866 5866 5866 5865 5865 5865
5873 5875 5877 5879 5881 5883 5884 5886 5887 5888 5889 5890 5891 5891 5892 5892 5891 5891 5891 5890 5889 5888 5887 5886 5884 5883 5881 5879 5878 5876 5874 5872 5871 5870 5869 5868 5867 5867 5866 5866 5865 5864 5864
5871 5873 5876 5877 5879 5881 5883 5884 5885 5887 5888 5889 5890 5890 5891 5891 5891 5891 5890 5890 5889 5888 5887 5886 5885 5883 5881 5880 5878 5876 5874 5873 5872 5870 5869 5868 5867 5866 5865 5865 5864 5863 5863
5869 5871 5873 5875 5877 5879 5881 5882 5884 5885 5886 5887 5888 5889 5889 5890 5890 5890 5889 5889 5888 5887 5886 5885 5884 5883 5881 5879 5878 5876 5875 5873 5872 5870 5869 5868 5866 5865 5864 5863 5862 5861 5860
5867 5869 5871 5873 5875 5877 5879 5880 5881 5883 5884 5885 5886 5887 5887 5888 5888 5888 5888 5887 5887 5886 5885 5884 5883 5881 5880 5878 5877 5876 5874 5872 5871 5869 5868 5866 5864 5863 5862 5860 5859 5858 5857
5864 5866 5868 5870 5872 5874 5876 5877 5879 5880 5881 5882 5884 5885 5885 5886 5886 5886 5886 5885 5885 5884 5884 5882 5881 5880 5878 5877 5875 5874 5872 5871 5869 5867 5865 5863 5862 5860 5858 5857 5856 5854 5853
5861 5863 5865 5867 5869 5871 5873 5874 5876 5877 5879 5880 5881 5882 5883 5883 5883 5883 5883 5883 5882 5882 5881 5880 5879 5878 5876 5875 5873 5872 5870 5868 5866 5864 5862 5860 5858 5856 5854 5853 5851 5850 5848
5858 5860 5862 5864 5866 5868 5870 5871 5873 5874 5876 5877 5878 5879 5879 5880 5880 5880 5880 5880 5879 5879 5878 5877 5876 5874 5873 5872 5870 5868 5867 5865 5862 5860 5858 5856 5853 5851 5849 5848 5846 5844 5843
5854 5856 5859 5861 5863 5864 5866 5868 5869 5871 5872 5873 5874 5875 5876 5876 5876 5877 5877 5876 5876 5875 5874 5873 5872 5871 5869 5868 5866 5864 5862 5860 5858 5855 5853 5851 5848 5846 5844 5842 5840 5837 5835
5851 5853 5855 5857 5859 5860 5862 5864 5865 5867 5868 5869 5870 5871 5871 5872 5872 5872 5872 5872 5871 5871 5870 5869 5867 5866 5865 5863 5861 5859 5857 5855 5852 5850 5847 5845 5842 5840 5837 5835 5833 5831 5828
5847 5849 5851 5853 5854 5856 5858 5859 5861 5862 5863 5865 5865 5866 5867 5867 5867 5867 5867 5867 5866 5866 5865 5864 5862 5861 5859 5858 5856 5854 5852 5849 5846 5843 5841 5838 5835 5833 5830 5828 5825 5823 5821
5842 5844 5846 5848 5850 5851 5853 5854 5856 5857 5858 5859 5860 5861 5861 5862 5862 5862 5862 5861 5861 5860 5859 5858 5857 5855 5854 5852 5850 5847 5845 5842 5840 5837 5834 5830 5827 5825 5822 5820 5817 5815 5812
5838 5840 5841 5843 5845 5846 5847 5849 5850 5852 5853 5853 5854 5855 5855 5856 5856 5856 5856 5855 5855 5854 5853 5852 5850 5849 5847 5845 5843 5840 5837 5835 5832 5829 5825 5822 5819 5816 5813 5810 5808 5805 5803
5833 5834 5836 5838 5839 5841 5842 5843 5845 5846 5847 5847 5848 5849 5849 5849 5849 5849 5849 5848 5848 5847 5846 5845 5843 5841 5839 5837 5835 5832 5829 5826 5823 5820 5817 5813 5810 5806 5803 5800 5797 5794 5792
5827 5829 5831 5832 5833 5835 5836 5837 5838 5839 5840 5840 5841 5842 5842 5842 5842 5842 5842 5841 5840 5839 5838 5837 5835 5833 5831 5829 5826 5823 5820 5817 5814 5810 5807 5803 5800 5796 5793 5790 5786 5783 5780
5821 5823 5824 5826 5827 5828 5829 5830 5831 5832 5833 5833 5834 5834 5835 5835 5835 5834 5834 5833 5832 5831 5830 5828 5826 5824 5822 5819 5817 5814 5810 5807 5804 5800 5797 5793 5789 5786 5782 5779 5775 5771 5768
5815 5817 5818 5819 5820 5821 5822 5823 5824 5825 5825 5826 5826 5827 5827 5827 5827 5826 5825 5825 5824 5822 5821 5819 5817 5814 5812 5809 5806 5803 5800 5796 5793 5789 5786 5782 5778 5774 5770 5767 5763 5759 5754
5809 5810 5811 5812 5813 5814 5815 5815 5816 5817 5818 5818 5818 5819 5818 5818 5818 5817 5817 5815 5814 5812 5810 5808 5806 5804 5801 5798 5795 5791 5788 5784 5781 5777 5773 5769 5765 5762 5757 5753 5749 5744 5740
Wind_Speed
7 7 6 5 4 3 2 1 1 1 3 4 5 6 7 8 9 10 12 13 13 14 15 15 16 16 17 17 17 16 15 13 12 11 9 8 7 6 5 4 3 3 2
8 7 6 6 5 4 3 2 1 1 2 3 4 5 6 7 8 10 11 12 12 14 14 15 16 16 17 17 17 16 15 14 13 11 10 9 9 7 6 5 4 3 2
8 7 6 6 6 5 4 3 2 1 1 2 4 4 5 7 8 9 10 11 11 13 14 15 15 16 16 16 16 16 15 14 13 12 11 9 9 8 7 5 4 4 3
8 8 7 7 7 6 5 3 2 2 1 2 3 4 5 6 7 8 9 10 11 12 13 14 14 15 16 16 16 16 15 14 12 11 11 10 9 8 8 7 6 4 3
9 9 8 8 7 7 6 5 3 3 2 2 2 2 3 5 6 7 8 9 10 11 12 13 14 14 15 16 16 16 15 14 13 12 11 10 9 8 8 8 7 6 4
10 10 9 8 8 8 7 6 5 4 3 2 1 1 2 4 5 6 7 8 9 11 12 13 13 14 14 15 15 16 15 14 14 13 11 11 10 8 8 7 7 6 5
11 10 9 8 8 8 7 6 6 5 4 2 1 0 1 3 4 5 6 7 9 10 11 12 12 13 13 14 14 15 14 14 13 12 11 10 10 9 8 7 7 6 6
11 10 10 9 9 9 8 8 7 6 5 4 3 2 1 2 3 4 5 6 7 9 10 11 11 12 13 13 13 13 13 13 12 12 11 10 10 9 9 8 8 7 6
12 11 11 10 10 10 9 8 8 7 6 5 4 3 2 2 3 4 4 5 6 8 9 10 11 11 12 12 12 12 12 12 12 11 11 10 9 9 9 8 8 8 7
13 12 12 11 11 11 10 10 9 8 7 6 5 4 3 3 3 3 4 5 6 7 8 10 11 11 11 12 12 12 12 11 11 11 11 10 10 10 9 9 8 8 8
14 13 13 13 12 12 11 11 10 9 8 7 6 5 5 4 4 4 4 5 6 7 8 9 10 11 11 12 11 11 11 11 11 11 11 11 11 11 11 10 10 9 10
14 14 14 14 14 13 12 11 11 10 9 9 8 7 6 5 5 5 5 6 6 7 8 9 10 11 12 12 11 11 12 12 12 12 12 12 13 13 13 12 12 12 12
14 15 15 15 15 14 13 12 12 11 11 10 10 9 8 7 7 7 7 7 7 8 9 10 11 11 12 12 12 12 12 12 13 13 13 14 14 14 14 14 14 15 15
15 15 15 15 15 15 14 14 13 12 12 11 11 10 10 9 9 9 9 9 9 10 10 11 12 12 12 13 13 13 14 14 15 15 16 16 16 16 16 16 17 17 18
15 15 15 16 15 15 15 14 14 13 13 13 12 12 12 12 11 11 11 11 11 12 12 13 13 13 13 14 15 15 16 17 18 18 18 18 18 18 19 19 20 20 21
16 16 16 16 16 16 16 15 15 14 14 14 14 14 14 14 13 13 13 13 13 14 14 15 15 15 15 16 17 18 18 19 20 20 20 21 21 21 21 22 23 23 23
17 17 17 17 17 17 17 16 16 16 16 15 16 15 15 15 15 15 15 15 15 16 16 16 17 17 18 18 19 20 21 21 22 22 23 23 23 24 24 25 25 26 26
18 18 18 18 18 18 18 18 17 17 17 17 17 17 17 17 16 17 17 17 17 17 18 18 19 19 20 20 21 22 23 24 24 25 25 26 26 26 27 27 28 28 28
19 19 19 19 19 19 19 19 19 19 19 19 19 19 19 19 19 19 19 19 19 19 20 20 21 21 22 23 23 25 26 27 27 27 28 28 29 29 30 30 30 31 31
20 19 19 19 19 19 19 19 20 20 20 20 21 21 21 21 21 21 21 21 21 21 22 23 23 23 24 25 26 28 29 29 29 30 30 31 32 32 32 32 32 33 33
20 20 20 20 20 21 21 21 21 21 22 23 23 23 23 23 23 23 23 23 23 24 24 25 25 26 27 28 29 30 31 31 32 33 33 34 35 35 35 34 34 35 36
21 21 21 22 22 23 23 22 22 23 23 24 24 24 24 24 24 24 25 25 25 26 26 27 28 29 30 30 31 33 34 34 35 35 36 37 37 37 37 37 37 38 39
21 22 22 23 24 23 23 23 24 24 24 25 25 25 25 25 25 26 26 27 27 28 29 29 30 31 32 33 34 35 36 36 37 37 38 38 38 38 38 39 40 41 42
22 23 23 23 23 23 23 24 25 26 26 26 26 26 26 27 27 28 29 29 30 30 31 31 32 33 35 36 36 37 38 39 39 39 40 40 40 40 41 41 43 44 45
23 23 23 23 23 24 25 26 26 27 27 27 28 28 28 29 29 30 31 31 32 33 34 34 35 36 37 38 39 39 40 40 41 41 41 41 42 42 44 45 46 47 48
25 24 24 25 25 26 26 27 27 28 29 29 29 30 31 31 31 32 32 33 35 35 36 37 38 39 40 41 41 42 42 43 43 44 44 44 44 45 46 48 49 49 50
Wind_Direction
204 201 195 197 202 194 179 168 150 95 61 50 45 41 42 40 39 38 36 35 33 34 34 35 35 35 35 36 39 42 45 48 51 53 58 62 67 75 81 89 100 119 150
204 205 203 204 206 198 192 185 160 116 74 63 55 49 47 43 42 39 37 37 36 34 34 35 36 36 37 38 39 40 43 46 49 50 53 56 62 67 73 81 89 94 105
209 209 208 207 204 202 200 189 169 147 88 77 63 56 49 44 41 37 36 35 35 34 34 36 36 36 37 37 38 39 41 43 45 47 51 55 59 60 66 75 79 76 74
215 216 215 210 208 207 204 196 182 171 135 100 73 62 49 39 35 34 34 35 34 33 33 33 33 33 33 35 36 37 37 40 42 44 48 52 57 60 62 64 67 68 70
218 220 220 215 214 212 208 206 198 193 173 136 86 62 42 32 32 32 32 32 31 30 28 29 30 30 31 33 33 34 35 38 40 42 46 48 50 54 58 58 59 62 64
218 220 220 217 218 215 212 210 204 202 193 180 134 50 33 27 30 31 31 29 28 26 26 26 26 27 28 30 31 31 34 36 39 42 46 47 47 51 52 51 48 48 50
221 218 217 218 219 217 214 213 206 206 211 215 232 291 17 27 29 27 25 24 22 22 22 23 24 25 25 26 28 29 32 35 37 40 42 43 42 42 41 41 35 28 27
223 219 219 218 217 216 214 214 214 217 221 225 238 254 311 2 12 12 13 14 15 17 19 19 20 21 22 24 26 25 27 30 33 35 37 37 35 32 31 28 25 19 14
227 224 223 219 219 218 216 217 220 224 226 228 237 252 271 306 342 354 0 4 7 10 13 16 16 16 17 18 19 19 21 23 26 28 29 28 24 20 18 16 13 9 5
227 226 225 222 221 222 221 221 222 224 226 230 236 249 262 286 316 337 344 350 353 359 5 8 8 7 7 8 10 12 15 18 20 21 19 15 11 8 6 0 356 352 347
229 228 227 224 223 224 224 224 224 227 230 234 241 250 260 274 294 311 325 336 341 346 352 356 358 360 359 359 1 4 7 8 8 6 4 2 357 353 349 344 339 334 331
231 229 228 228 228 226 228 228 228 231 234 239 245 251 258 268 282 295 307 318 324 331 338 342 344 348 351 352 353 354 357 357 354 352 349 346 344 341 338 334 328 324 320
232 231 230 231 231 230 232 233 232 235 239 243 248 252 257 265 275 287 296 303 310 318 325 329 332 335 340 343 344 344 344 344 342 341 338 335 333 331 328 324 321 318 315
232 232 232 234 235 236 237 238 237 239 242 246 250 254 259 264 272 281 289 294 299 308 316 320 323 327 330 333 335 334 333 332 332 332 330 327 324 321 319 316 315 313 310
234 233 234 236 238 239 240 242 241 242 245 249 253 257 261 266 272 278 283 289 293 301 308 312 314 316 319 322 325 324 323 323 323 323 323 321 320 318 315 313 312 309 307
236 235 236 238 240 241 243 247 245 245 248 253 256 260 263 266 270 275 280 285 289 295 301 304 307 309 311 314 316 317 316 317 318 319 318 317 316 314 312 311 309 307 304
237 237 238 240 244 246 247 250 249 249 252 256 259 261 264 266 270 274 279 283 287 291 295 299 302 304 305 308 311 312 312 313 314 315 314 313 312 311 309 308 307 305 304
243 242 242 244 245 247 250 251 251 253 256 258 261 263 265 268 271 275 278 282 286 289 292 295 298 300 301 303 306 309 310 310 311 312 311 310 308 307 307 306 305 303 302
244 244 245 247 247 249 250 251 251 254 257 259 261 264 266 269 272 275 279 281 285 288 291 293 295 297 299 301 303 305 307 308 308 309 308 307 306 305 305 304 302 301 300
247 245 246 247 249 250 251 252 253 255 257 259 262 265 267 269 271 274 277 280 283 287 289 291 293 295 297 299 302 303 304 305 305 306 306 306 305 304 303 302 301 300 299
249 247 248 249 251 252 253 254 254 257 259 261 264 266 268 270 272 274 277 280 283 286 288 290 292 294 296 299 301 302 303 303 303 304 304 304 304 303 302 301 300 299 298
250 250 250 252 252 254 256 257 258 259 261 263 265 266 268 270 272 275 278 281 284 287 289 290 292 294 296 298 299 300 301 301 302 302 303 303 303 302 301 300 299 299 299
252 253 253 253 255 257 259 261 262 261 262 264 265 267 268 271 274 277 280 282 285 287 289 290 292 294 295 297 298 299 301 301 301 301 301 302 302 301 300 300 299 299 298
252 252 253 255 256 258 260 262 263 263 263 265 266 268 270 272 275 278 281 283 285 287 289 291 292 293 294 296 297 298 299 300 300 300 300 300 300 299 299 299 299 299 298
251 253 255 257 260 261 262 264 265 265 265 266 268 269 271 274 276 279 281 283 285 287 289 290 292 293 294 295 296 297 299 299 299 299 299 299 299 298 298 298 298 298 298
255 256 259 261 262 263 264 265 266 266 267 268 269 271 273 275 277 279 281 284 286 288 289 290 292 293 294 295 296 297 298 298 298 298 299 298 299 299 299 298 298 298 297